Preview of NWS' New Version of Forecast
This preview is not operational and should not be used for support decisions.

Regional Weather Roundup (RWR)

Issued by National Weather Service (NWS)

                            
000
ASUS45 KABQ 190801
RWRNM 
NEW MEXICO REGIONAL WEATHER ROUNDUP
NATIONAL WEATHER SERVICE ALBUQUERQUE NM
200 AM MDT FRI APR 19 2019

NOTE: "FAIR" MEANS FEW OR NO CLOUDS BELOW 12,000 FEET AGL WITH NO
       SIGNIFICANT WEATHER OR OBSTRUCTIONS TO VISION.

      THIS PRODUCT IS RELEASED AS TWO VERSIONS.  ONE VERSION NEAR
      THE TOP OF THE HOUR CONTAINING PRELIMINARY DATA FROM ALBUQUERQUE
      AND OTHER STATIONS.  A FINAL VERSION WITH ADDITIONAL DATA IS 
      ISSUED ABOUT 10 MINUTES AFTER THE HOUR.
 
NMZ501-503-504-510>518-190900-
NORTHWEST PLATEAU/NORTHCENTRAL MOUNTAINS
  
CITY           SKY/WX    TMP DP  RH WIND       PRES   REMARKS
FARMINGTON     FAIR      52  21  29 W3        30.22F                  
LOS ALAMOS       N/A     51  14  23 NW5       30.31S                  
SANTA FE       FAIR      45  33  63 S13       30.28R                  
TAOS           FAIR      38  17  42 NE12      30.31S WCI  30          
ANGEL FIRE       N/A     28  25  90 CALM      30.34S                  

$$
NMZ402-403-502-505>509-190900-
WESTCENTRAL MOUNTAINS/SOUTHWEST MOUNTAINS
  
CITY           SKY/WX    TMP DP  RH WIND       PRES   REMARKS
GALLUP         FAIR      36  26  67 NE3       30.31S                  
GRANTS         FAIR      37  26  66 N7        30.32S WCI  31          

$$
NMZ407-409-411-412-190900-
SOUTHERN DESERTS
  
CITY           SKY/WX    TMP DP  RH WIND       PRES   REMARKS
DEMING         FAIR      54  33  45 W6        30.17S                  
LAS CRUCES     FAIR      53  24  32 W9        30.17S                  
HOLLOMAN AFB   FAIR      51  33  50 E3        30.17S                  
ALAMOGORDO     FAIR      54  32  43 CALM      30.15F                  
T OR C         FAIR      58  24  27 NW6       30.18R                  

$$
NMZ519>523-190900-
CENTRAL VALLEYS/CENTRAL HIGHLANDS
  
CITY           SKY/WX    TMP DP  RH WIND       PRES   REMARKS
ALBUQUERQUE    FAIR      54  33  45 E16       30.22S                  
DOUBLE EAGLE   FAIR      52  27  38 N9        30.24F                  
MORIARTY ARPT  FAIR      44  35  70 CALM      30.32R                  
CLINES CORNERS FAIR      37  30  75 E6        30.32S WCI  32          
BELEN          FAIR      51  33  50 CALM      30.23S                  
SOCORRO        FAIR      53  32  44 NW6       30.20F                  

$$
NMZ524>526-539-540-190900-
SOUTHCENTRAL MOUNTAINS
  
CITY           SKY/WX    TMP DP  RH WIND       PRES   REMARKS
RUIDOSO        FAIR      43  30  61 SE17      30.33R                  

$$
NMZ527>531-190900-
NORTHEAST HIGHLANDS/NORTHEAST PLAINS
  
CITY           SKY/WX    TMP DP  RH WIND       PRES   REMARKS
LAS VEGAS      FAIR      38  33  82 W6        30.31S WCI  33          
RATON          FAIR      33  28  81 N5        30.26F WCI  29          
CLAYTON        FAIR      34  24  67 NW9       30.22F WCI  27          

$$
NMZ532>537-190900-
EASTCENTRAL PLAINS
  
CITY           SKY/WX    TMP DP  RH WIND       PRES   REMARKS
SANTA ROSA     FAIR      46  33  60 CALM      30.26S                  
TUCUMCARI      FAIR      42  35  76 N6        30.22S                  
CANNON AFB     FAIR      44  33  67 CALM      30.25R                  
CLOVIS AIRPORT FAIR      41  34  76 N6        30.24R                  

$$
NMZ028-029-538-190900-
SOUTHEAST PLAINS
  
CITY           SKY/WX    TMP DP  RH WIND       PRES   REMARKS
ROSWELL        FAIR      55  33  43 NE13      30.21R                  
ARTESIA        FAIR      52  34  50 N7        30.20R                  
CARLSBAD       FAIR      56  35  45 E9        30.15R                  
HOBBS          FAIR      52  34  50 NE10      30.20S                  


$$